Location: Arthez
(43.0833°N, 0.2500°W)
Time: 00:38:54
(UTC+00:00)

NOSS 3-1 (A) - Pass Details

Date: 30 May 2022
Orbit: 711 x 1501 km, 63.4° (Epoch: 21 May)

Event Time Altitude Azimuth Distance (km) Brightness Sun altitude
Rises 00:19:25 0° 319° (NW) 4,016 7.3 -25.0°
Reaches altitude 10° 00:22:03 10° 314° (NW) 3,158 6.6 -25.0°
Maximum altitude 00:29:29 51° 242° (WSW) 1,666 4.4 -24.8°
Enters shadow 00:31:37 42° 204° (SSW) 1,881 4.5 -24.7°
